Visibility
15.0 15.0 15.0 15.0 15.0 15.0 15.0 15.0 15.0 15.0 15.0 15.0 15.0 15.0 15.0 15.0 15.0 15.0 15.0 15.0 15.0 15.0 15.0 15.0 15.0 15.0 15.0 15.0 15.0 15.0 15.0 15.0 15.0 15.0 15.0 15.0 15.0 15.0 15.0 15.0 15.0 15.0 15.0 15.0 15.0 15.0 15.0
15.0 15.0 15.0 15.0 15.0 15.0 15.0 15.0 15.0 15.0 15.0 15.0 15.0 15.0 15.0 15.0 15.0 15.0 15.0 15.0 15.0 15.0 15.0 15.0 15.0 15.0 15.0 15.0 15.0 15.0 15.0 15.0 15.0 15.0 15.0 15.0 15.0 15.0 15.0 15.0 15.0 15.0 15.0 15.0 15.0 15.0 15.0
15.0 15.0 15.0 15.0 15.0 15.0 15.0 15.0 15.0 15.0 15.0 15.0 15.0 15.0 15.0 15.0 15.0 15.0 15.0 15.0 15.0 15.0 15.0 15.0 15.0 15.0 15.0 15.0 15.0 15.0 15.0 15.0 15.0 15.0 15.0 15.0 15.0 15.0 15.0 15.0 15.0 15.0 15.0 15.0 15.0 15.0 15.0
15.0 15.0 15.0 15.0 15.0 15.0 15.0 15.0 15.0 15.0 15.0 15.0 15.0 15.0 15.0 15.0 15.0 15.0 15.0 15.0 15.0 15.0 15.0 15.0 15.0 15.0 15.0 15.0 15.0 15.0 15.0 15.0 15.0 15.0 15.0 15.0 15.0 15.0 15.0 15.0 15.0 15.0 15.0 15.0 15.0 15.0 15.0
15.0 15.0 15.0 15.0 15.0 15.0 15.0 15.0 15.0 15.0 15.0 15.0 15.0 15.0 15.0 15.0 15.0 15.0 15.0 15.0 15.0 15.0 15.0 15.0 15.0 15.0 15.0 15.0 15.0 15.0 15.0 15.0 15.0 15.0 15.0 15.0 15.0 15.0 15.0 15.0 15.0 15.0 15.0 15.0 15.0 15.0 15.0
15.0 15.0 15.0 15.0 15.0 15.0 15.0 15.0 15.0 15.0 15.0 15.0 15.0 15.0 15.0 15.0 15.0 15.0 15.0 15.0 15.0 15.0 15.0 15.0 15.0 15.0 15.0 15.0 15.0 15.0 15.0 15.0 15.0 15.0 15.0 15.0 15.0 15.0 15.0 15.0 15.0 15.0 15.0 15.0 15.0 15.0 15.0
14.7 15.0 15.0 15.0 15.0 15.0 15.0 15.0 15.0 15.0 15.0 15.0 15.0 15.0 15.0 15.0 15.0 15.0 15.0 15.0 15.0 15.0 15.0 15.0 15.0 15.0 15.0 15.0 15.0 15.0 15.0 15.0 15.0 15.0 15.0 15.0 15.0 15.0 15.0 15.0 15.0 15.0 15.0 15.0 15.0 15.0 15.0
3.7 8.6 13.8 15.0 15.0 15.0 15.0 15.0 15.0 15.0 15.0 15.0 15.0 15.0 15.0 15.0 15.0 15.0 15.0 15.0 15.0 15.0 15.0 15.0 15.0 15.0 15.0 15.0 15.0 15.0 15.0 15.0 15.0 15.0 15.0 15.0 15.0 15.0 15.0 15.0 15.0 15.0 15.0 15.0 15.0 15.0 15.0
3.0 3.5 7.9 14.7 15.0 15.0 15.0 15.0 15.0 15.0 15.0 15.0 15.0 15.0 15.0 15.0 15.0 15.0 15.0 15.0 15.0 15.0 15.0 15.0 15.0 15.0 15.0 15.0 15.0 15.0 15.0 15.0 15.0 15.0 15.0 15.0 15.0 15.0 15.0 15.0 15.0 15.0 15.0 15.0 15.0 15.0 15.0
3.8 4.0 8.6 6.0 15.0 15.0 15.0 15.0 15.0 15.0 15.0 15.0 15.0 15.0 15.0 15.0 15.0 15.0 15.0 15.0 15.0 15.0 15.0 15.0 15.0 15.0 15.0 15.0 15.0 15.0 15.0 15.0 15.0 15.0 15.0 15.0 15.0 15.0 15.0 15.0 15.0 15.0 15.0 15.0 15.0 15.0 15.0
5.3 3.3 3.4 13.9 4.8 14.4 15.0 15.0 15.0 15.0 15.0 15.0 15.0 15.0 15.0 15.0 15.0 15.0 15.0 15.0 15.0 15.0 15.0 15.0 15.0 15.0 15.0 15.0 15.0 15.0 15.0 15.0 15.0 15.0 15.0 15.0 15.0 15.0 15.0 15.0 15.0 15.0 15.0 15.0 15.0 15.0 15.0
4.6 9.6 4.0 3.2 10.5 14.3 12.3 12.5 10.4 14.9 15.0 15.0 15.0 15.0 15.0 15.0 15.0 15.0 15.0 15.0 15.0 15.0 15.0 15.0 15.0 15.0 15.0 15.0 15.0 15.0 15.0 15.0 15.0 15.0 15.0 15.0 15.0 15.0 15.0 15.0 15.0 15.0 15.0 15.0 15.0 15.0 15.0
4.5 7.0 6.2 3.5 4.0 3.9 12.3 11.1 14.9 15.0 15.0 15.0 15.0 15.0 15.0 15.0 15.0 15.0 15.0 15.0 15.0 15.0 15.0 15.0 15.0 15.0 15.0 15.0 15.0 15.0 15.0 15.0 15.0 15.0 15.0 15.0 15.0 15.0 15.0 15.0 15.0 15.0 15.0 15.0 15.0 15.0 15.0
14.6 4.8 8.5 6.5 7.2 3.8 3.8 3.0 2.6 11.4 15.0 15.0 15.0 15.0 15.0 15.0 15.0 15.0 15.0 15.0 15.0 15.0 15.0 15.0 15.0 15.0 15.0 15.0 15.0 15.0 15.0 15.0 15.0 15.0 15.0 15.0 15.0 15.0 15.0 15.0 15.0 15.0 15.0 15.0 15.0 15.0 15.0
15.0 12.3 8.1 5.7 4.3 4.2 3.4 2.1 2.7 5.4 8.9 15.0 15.0 13.8 15.0 15.0 15.0 15.0 15.0 2.3 15.0 15.0 15.0 15.0 15.0 15.0 15.0 15.0 15.0 15.0 15.0 15.0 15.0 15.0 15.0 15.0 15.0 15.0 15.0 15.0 15.0 15.0 15.0 15.0 15.0 15.0 14.9
7.6 15.0 8.4 6.8 7.7 4.0 3.3 4.0 3.8 5.7 8.3 13.3 15.0 15.0 15.0 15.0 15.0 8.3 0.2 15.0 15.0 15.0 15.0 15.0 15.0 15.0 15.0 15.0 15.0 15.0 15.0 15.0 15.0 15.0 15.0 15.0 15.0 15.0 15.0 15.0 15.0 15.0 15.0 15.0 15.0 15.0 15.0
9.4 10.2 14.3 6.4 8.9 6.0 4.1 7.6 4.5 10.2 13.0 12.7 15.0 5.6 15.0 15.0 15.0 0.0 0.1 15.0 15.0 15.0 15.0 15.0 15.0 15.0 15.0 15.0 15.0 15.0 15.0 15.0 15.0 15.0 15.0 15.0 15.0 15.0 15.0 15.0 15.0 15.0 15.0 15.0 15.0 15.0 15.0
15.0 6.2 12.7 7.5 5.1 7.5 11.7 4.8 11.9 8.6 15.0 11.4 9.8 14.5 15.0 15.0 0.0 0.1 0.1 15.0 15.0 15.0 15.0 15.0 15.0 15.0 15.0 15.0 15.0 15.0 15.0 15.0 15.0 15.0 15.0 15.0 15.0 15.0 15.0 15.0 15.0 15.0 15.0 15.0 15.0 15.0 15.0
14.1 7.1 6.1 7.8 8.3 10.1 7.9 7.7 5.7 8.6 7.3 11.4 15.0 11.3 15.0 12.2 0.0 0.0 15.0 15.0 15.0 15.0 15.0 15.0 15.0 15.0 15.0 15.0 15.0 15.0 15.0 15.0 15.0 15.0 15.0 15.0 15.0 15.0 15.0 15.0 15.0 15.0 15.0 15.0 15.0 15.0 15.0
11.9 11.5 9.0 14.4 5.3 5.7 7.6 8.8 6.1 9.7 12.0 4.9 2.0 0.0 7.8 3.6 0.3 0.1 0.1 8.2 0.3 0.2 1.6 8.2 15.0 15.0 15.0 15.0 15.0 15.0 15.0 8.3 15.0 15.0 15.0 15.0 15.0 15.0 15.0 15.0 15.0 15.0 15.0 15.0 15.0 15.0 15.0
13.0 15.0 11.1 8.1 4.5 4.8 6.3 10.4 7.8 7.1 6.7 7.0 0.4 0.0 0.1 0.0 0.0 0.0 0.0 0.0 0.1 0.0 0.0 0.0 0.0 0.1 0.1 15.0 15.0 15.0 15.0 15.0 0.4 3.2 5.1 3.8 0.1 15.0 15.0 15.0 15.0 15.0 15.0 15.0 15.0 15.0 15.0
14.3 5.2 10.6 8.0 6.2 7.8 3.7 4.5 5.6 8.2 15.0 15.0 0.0 0.0 0.1 0.0 0.0 0.0 0.0 0.0 0.1 0.0 0.0 0.0 0.0 0.0 0.0 0.1 0.0 0.1 1.9 3.0 0.0 0.0 0.0 0.0 0.2 15.0 15.0 15.0 15.0 14.8 15.0 15.0 15.0 15.0 3.5
12.3 15.0 14.1 15.0 15.0 8.6 5.7 4.8 4.2 4.5 14.4 15.0 15.0 12.4 5.5 0.0 0.0 0.1 0.0 0.0 0.0 0.0 0.0 0.0 0.0 0.0 0.0 0.0 0.0 0.0 0.0 0.1 0.0 0.0 0.0 0.1 0.1 0.1 0.2 3.5 6.7 10.9 15.0 15.0 15.0 0.2 0.1
15.0 15.0 15.0 12.0 10.8 12.4 4.7 9.7 5.3 3.3 8.1 15.0 15.0 15.0 15.0 0.1 0.2 0.3 0.1 0.1 0.0 0.0 0.0 0.0 0.0 0.1 0.0 10.4 15.0 6.8 6.5 15.0 13.0 3.4 0.1 0.1 0.1 0.1 0.1 0.6 0.1 0.5 15.0 14.7 2.8 0.1 0.1
15.0 15.0 15.0 11.6 8.2 12.8 14.5 11.4 7.1 4.3 3.1 11.8 15.0 15.0 15.0 2.3 13.6 3.8 11.9 15.0 12.1 13.7 0.0 0.0 0.0 12.3 14.6 15.0 15.0 15.0 15.0 15.0 12.3 15.0 14.1 10.9 0.1 0.1 0.1 0.1 1.6 0.2 2.1 15.0 0.1 0.1 2.8
15.0 15.0 15.0 15.0 8.6 11.8 13.4 6.9 11.7 8.1 3.4 4.6 9.0 15.0 15.0 15.0 4.3 15.0 1.8 15.0 0.9 0.1 0.0 0.0 15.0 15.0 15.0 15.0 5.8 10.2 14.9 15.0 15.0 15.0 13.7 0.7 0.1 0.1 0.1 0.1 0.3 4.4 2.4 15.0 5.4 0.1 15.0
15.0 15.0 15.0 15.0 8.0 10.3 8.1 4.3 7.1 12.3 8.5 3.9 6.6 14.2 5.9 9.2 11.3 15.0 15.0 7.7 15.0 15.0 2.0 6.2 2.7 0.0 9.7 0.0 2.3 9.4 13.1 15.0 12.5 15.0 5.4 0.1 0.0 0.0 0.4 0.1 0.9 0.3 2.3 15.0 6.7 14.1 15.0
15.0 15.0 15.0 15.0 15.0 13.0 15.0 14.4 8.0 9.9 14.8 8.4 0.3 12.9 5.8 0.1 7.6 15.0 15.0 15.0 15.0 15.0 10.6 10.3 1.9 0.3 0.0 0.1 2.7 11.2 6.7 15.0 2.1 15.0 15.0 10.9 5.1 10.4 1.7 0.2 3.7 5.9 15.0 4.9 15.0 15.0 15.0
15.0 15.0 15.0 15.0 15.0 13.0 11.3 15.0 12.1 10.0 15.0 13.7 0.0 6.8 15.0 1.2 0.1 15.0 15.0 15.0 15.0 15.0 4.8 2.2 15.0 15.0 13.4 3.1 4.1 9.9 0.4 0.4 14.5 12.7 15.0 10.6 15.0 15.0 15.0 15.0 15.0 15.0 15.0 15.0 15.0 15.0 15.0